Location: Warszawa
(52.2500°N, 21.0000°E)
Time: 03:19:49
(UTC+01:00)

Envisat - Visible Passes

Search period start: 10 December 2022 00:00
Search period end: 20 December 2022 00:00
Orbit: 763 x 765 km, 98.2° (Epoch: 09 December)

Date Brightness Start Highest point End Pass type
(mag) Time Alt. Az. Time Alt. Az. Time Alt. Az.
10 Dec 5.9 02:40:15 10° NE 02:40:32 11° NE 02:40:32 11° NE visible
10 Dec 4.4 04:18:20 10° NNE 04:20:43 28° N 04:20:43 28° N visible
10 Dec 4.6 05:58:43 10° NNW 06:00:53 15° NW 06:00:53 15° NW visible
11 Dec 4.9 03:41:22 10° NNE 03:43:10 22° NNE 03:43:10 22° NNE visible
11 Dec 4.3 05:20:54 10° N 05:23:21 22° NNW 05:23:21 22° NNW visible
11 Dec 6.3 16:45:46 10° W 16:46:38 10° W 16:47:32 10° WNW visible
12 Dec 5.6 03:04:43 10° NNE 03:05:37 14° NE 03:05:37 14° NE visible
12 Dec 4.3 04:43:30 10° N 04:45:48 26° N 04:45:48 26° N visible
12 Dec 4.9 06:25:09 10° NNW 06:25:59 11° NW 06:25:59 11° NW visible
12 Dec 5.7 16:05:17 10° SW 16:09:05 21° W 16:12:55 10° NW visible
13 Dec 4.7 04:06:21 10° NNE 04:08:16 23° NNE 04:08:16 23° NNE visible
13 Dec 4.6 05:46:25 10° NNW 05:48:26 17° NNW 05:48:26 17° NNW visible
14 Dec 5.3 03:29:28 10° NNE 03:30:44 17° NNE 03:30:44 17° NNE visible
14 Dec 4.4 05:08:46 10° N 05:10:55 22° NNW 05:10:55 22° NNW visible
14 Dec 5.9 16:32:05 10° WSW 16:34:29 13° W 16:36:53 10° NW visible
15 Dec 5.9 02:52:57 10° NE 02:53:13 11° NE 02:53:13 11° NE visible
15 Dec 4.6 04:31:27 10° N 04:33:23 23° N 04:33:23 23° N visible
15 Dec 4.8 06:12:20 10° NNW 06:13:34 12° NW 06:13:34 12° NW visible
16 Dec 5.0 03:54:24 10° NNE 03:55:53 20° NNE 03:55:53 20° NNE visible
16 Dec 4.6 05:34:11 10° N 05:36:03 18° NNW 05:36:03 18° NNW visible
17 Dec 5.6 03:17:36 10° NNE 03:18:22 14° NNE 03:18:22 14° NNE visible
17 Dec 4.6 04:56:40 10° N 04:58:32 21° N 04:58:32 21° N visible
17 Dec 5.8 16:19:09 10° SW 16:22:20 17° W 16:25:31 10° NW visible
18 Dec 4.8 04:19:26 10° NNE 04:21:03 21° N 04:21:03 21° N visible
18 Dec 4.8 05:59:52 10° NNW 06:01:13 14° NNW 06:01:13 14° NNW visible
19 Dec 5.3 03:42:27 10° NNE 03:43:33 17° NNE 03:43:33 17° NNE visible
19 Dec 4.6 05:22:01 10° N 05:23:43 18° NNW 05:23:43 18° NNW visible
